Weather History for Williston, ND

Change the Weather History Date:

Tuesday, January 29, 2013

  Actual Average Record
Temperature  
Mean Temperature 6 °F 12 °F  
Max Temperature 19 °F 23 °F 51 °F (1931)
Min Temperature -7 °F 1 °F -40 °F (1966)
Degree Days  
Heating Degree Days 59 53  
Month to date heating degree days 1468 1571  
Since 1 July heating degree days 5222 5318  
Cooling Degree Days 0 0  
Month to date cooling degree days 0 0  
Year to date cooling degree days 0 0  
Moisture  
Dew Point 4 °F    
Average Humidity 88    
Maximum Humidity 100    
Minimum Humidity 75    
Precipitation  
Precipitation 0.02 in 0.01 in 0.28 in (1923)
Month to date precipitation 0.45 0.56  
Year to date precipitation 0.45 0.56  
Snow  
Snow 0.30 in 0.20 in 2.90 in (1923)
Month to date snowfall 6.4 9.5  
Snow Depth 3.00 in    
Sea Level Pressure  
Sea Level Pressure 29.96 in    
Wind  
Wind Speed 12 mph (North)    
Max Wind Speed 31 mph    
Max Gust Speed 37 mph    
Visibility 4 miles    
Events Fog , Snow    
T = Trace of Precipitation, MM = Missing Value Source: NWS Daily Summary

Daily Weather History Graph

Daily Weather History Graph

Search for Another Location

Airport:

Trip Planner

Search our weather history database for the weather conditions in past years. The results will help you decide how hot, cold, wet, or windy it might be!

Date:

Astronomy

Jan. 29, 2013 Rise Set
Actual Time 8:26 AM CST 5:49 PM CST
Civil Twilight 7:52 AM CST 6:23 PM CST
Nautical Twilight 7:14 AM CST 7:01 PM CST
Astronomical Twilight 6:38 AM CST 7:37 PM CST
Moon 9:07 PM CST (1/29) 9:08 AM CST (1/29)
Length of Visible Light 10h 31m
Length of Day
9h 23m
Waning Gibbous, 93% of the Moon is Illuminated
Jan 29
Waning Gibbous
Feb 3
Last Quarter
Feb 10
New
Feb 17
First Quarter
Feb 25
Full

Hourly Weather History & Observations

Time (CST) Temp. Windchill Dew Point Humidity Pressure Visibility Wind Dir Wind Speed Gust Speed Precip Events Conditions
12:52 AM 6.1 °F - 5.0 °F 95% 29.82 in 10.0 mi Calm Calm - N/A   Clear
1:52 AM 5.0 °F -2.1 °F 3.9 °F 95% 29.81 in 7.0 mi NE 3.5 mph - N/A   Clear
2:52 AM 3.9 °F -3.4 °F 3.9 °F 100% 29.80 in 4.0 mi NNE 3.5 mph - N/A   Partly Cloudy
3:03 AM 5.0 °F -4.1 °F 3.2 °F 92% 29.69 in 3.0 mi NNE 4.6 mph - N/A   Mostly Cloudy
3:52 AM 3.9 °F -8.2 °F 3.9 °F 100% 29.80 in 2.0 mi NE 6.9 mph - N/A   Overcast
4:05 AM 5.0 °F -6.9 °F 3.2 °F 92% 29.69 in 4.0 mi NE 6.9 mph - N/A   Overcast
4:16 AM 3.2 °F -9.1 °F 3.2 °F 100% 29.68 in 2.5 mi NE 6.9 mph - N/A   Overcast
4:30 AM 5.0 °F -5.6 °F 3.2 °F 92% 29.69 in 1.2 mi NNE 5.8 mph - N/A   Overcast
4:52 AM 5.0 °F -8.1 °F 3.0 °F 92% 29.80 in 1.5 mi NE 8.1 mph - 0.00 in Snow Light Snow
5:02 AM 5.0 °F -5.6 °F 3.2 °F 92% 29.69 in 2.5 mi NE 5.8 mph - 0.00 in   Overcast
5:07 AM 3.2 °F -9.1 °F 3.2 °F 100% 29.69 in 5.0 mi NE 6.9 mph - 0.00 in   Overcast
5:24 AM 5.0 °F -6.9 °F 3.2 °F 92% 29.69 in 6.0 mi NE 6.9 mph - 0.00 in   Overcast
5:40 AM 5.0 °F -6.9 °F 3.2 °F 92% 29.70 in 1.8 mi North 6.9 mph - 0.00 in Snow Light Snow
5:49 AM 5.0 °F -9.1 °F 3.2 °F 92% 29.70 in 0.8 mi North 9.2 mph - 0.00 in Snow Light Snow
5:52 AM 5.0 °F -9.1 °F 3.9 °F 95% 29.82 in 0.8 mi North 9.2 mph - 0.00 in   Overcast
5:57 AM 5.0 °F -9.1 °F 3.2 °F 92% 29.71 in 1.0 mi North 9.2 mph - 0.00 in Snow Light Snow
6:13 AM 5.0 °F -10.0 °F 3.2 °F 92% 29.71 in 2.5 mi NNE 10.4 mph - 0.00 in Snow Light Snow
6:39 AM 5.0 °F -10.0 °F 3.2 °F 92% 29.73 in 3.0 mi North 10.4 mph - 0.00 in Snow Light Snow
6:49 AM 5.0 °F -9.1 °F 3.2 °F 92% 29.73 in 2.5 mi North 9.2 mph - 0.00 in Snow Light Snow
6:52 AM 5.0 °F -10.8 °F 3.9 °F 95% 29.85 in 2.5 mi North 11.5 mph - 0.00 in Snow Light Snow
7:22 AM 6.8 °F -7.8 °F 5.0 °F 92% 29.74 in 3.0 mi NNE 10.4 mph - 0.00 in Snow Light Snow
7:29 AM 6.8 °F -7.8 °F 5.0 °F 92% 29.74 in 2.0 mi NNE 10.4 mph - 0.00 in Snow Light Snow
7:52 AM 7.0 °F -6.6 °F 6.1 °F 96% 29.88 in 3.0 mi North 9.2 mph - 0.00 in Snow Light Snow
8:32 AM 6.8 °F -5.9 °F 5.0 °F 92% 29.77 in 6.0 mi NNE 8.1 mph - 0.00 in   Overcast
8:52 AM 7.0 °F -5.7 °F 6.1 °F 96% 29.92 in 7.0 mi North 8.1 mph - 0.00 in   Overcast
9:00 AM 6.8 °F -3.5 °F 6.8 °F 100% 29.78 in 5.0 mi NE 5.8 mph - N/A   Overcast
9:12 AM 8.6 °F -4.7 °F 6.8 °F 92% 29.79 in 2.0 mi NNE 9.2 mph - N/A   Overcast
9:17 AM 8.6 °F -3.7 °F 6.8 °F 92% 29.79 in 1.2 mi NNE 8.1 mph - 0.00 in Snow Light Snow
9:52 AM 8.1 °F -4.3 °F 7.0 °F 95% 29.95 in 1.8 mi North 8.1 mph - 0.00 in Snow Light Snow
10:11 AM 8.6 °F -1.3 °F 8.6 °F 100% 29.83 in 2.0 mi North 5.8 mph - 0.00 in Snow Light Snow
10:29 AM 10.4 °F 4.0 °F 8.6 °F 92% 29.84 in 3.0 mi North 3.5 mph - 0.00 in   Overcast
10:43 AM 10.4 °F 2.2 °F 8.6 °F 92% 29.85 in 3.0 mi NNW 4.6 mph - 0.00 in   Overcast
10:52 AM 10.9 °F 1.4 °F 10.0 °F 96% 29.99 in 4.0 mi North 5.8 mph - 0.00 in   Overcast
11:01 AM 12.2 °F 2.9 °F 10.4 °F 92% 29.86 in 5.0 mi North 5.8 mph - N/A   Overcast
11:52 AM 15.1 °F 3.3 °F 12.9 °F 91% 30.01 in 5.0 mi North 9.2 mph - 0.00 in Snow Light Snow
12:00 PM 15.8 °F 4.2 °F 12.2 °F 86% 29.89 in 6.0 mi North 9.2 mph - 0.00 in Snow Light Snow
12:08 PM 15.8 °F 6.1 °F 12.2 °F 86% 29.89 in 7.0 mi North 6.9 mph - 0.00 in Snow Light Snow
12:13 PM 15.8 °F 2.7 °F 14.0 °F 93% 29.89 in 7.0 mi North 11.5 mph - 0.00 in   Overcast
12:19 PM 15.8 °F 2.7 °F 14.0 °F 93% 29.89 in 6.0 mi North 11.5 mph - 0.00 in Snow Light Snow
12:36 PM 15.8 °F 3.4 °F 14.0 °F 93% 29.89 in 5.0 mi NNW 10.4 mph - 0.00 in Snow Light Snow
12:52 PM 16.0 °F 4.4 °F 14.0 °F 92% 30.03 in 3.0 mi North 9.2 mph - 0.00 in Snow Light Snow
1:52 PM 18.0 °F 6.1 °F 15.1 °F 88% 30.04 in 9.0 mi NNW 10.4 mph - 0.00 in   Overcast
2:32 PM 17.6 °F 5.7 °F 15.8 °F 93% 29.93 in 2.5 mi NNW 10.4 mph - 0.00 in Snow Light Snow
2:52 PM 19.0 °F 6.1 °F 16.0 °F 88% 30.07 in 3.0 mi NNW 12.7 mph - 0.00 in Snow Light Snow
3:42 PM 17.6 °F 0.5 °F 14.0 °F 86% 29.97 in 4.0 mi NNW 21.9 mph 26.5 mph 0.00 in Snow Light Snow
3:52 PM 18.0 °F 1.7 °F 14.0 °F 84% 30.11 in 4.0 mi NNW 19.6 mph - 0.00 in Snow Light Snow
4:23 PM 17.6 °F 0.5 °F 14.0 °F 86% 30.00 in 4.0 mi NNW 21.9 mph - 0.00 in Snow Light Snow
4:29 PM 15.8 °F -2.3 °F 12.2 °F 86% 30.01 in 1.8 mi NW 23.0 mph - 0.00 in Snow Light Snow
4:52 PM 14.0 °F -5.8 °F 10.9 °F 88% 30.16 in 1.2 mi NW 26.5 mph - 0.00 in Snow Light Snow
5:03 PM 12.2 °F -8.9 °F 8.6 °F 85% 30.03 in 0.8 mi NW 28.8 mph 35.7 mph 0.00 in Snow Light Snow
5:32 PM 8.6 °F -14.1 °F 6.8 °F 92% 30.06 in 0.2 mi NW 29.9 mph 34.5 mph 0.00 in Fog , Snow Snow
5:52 PM 7.0 °F -16.0 °F 3.9 °F 87% 30.23 in 0.2 mi NNW 28.8 mph 34.5 mph 0.00 in Fog , Snow Snow
5:59 PM 6.8 °F -15.9 °F 3.2 °F 85% 30.08 in 0.5 mi NW 27.6 mph 33.4 mph 0.00 in Fog , Snow Snow
6:17 PM 3.2 °F -19.9 °F 1.4 °F 92% 30.09 in 1.0 mi NNW 25.3 mph 32.2 mph 0.00 in Snow Light Snow
6:49 PM 1.4 °F -21.0 °F -0.4 °F 92% 30.11 in 2.5 mi NNW 21.9 mph 32.2 mph 0.00 in Snow Light Snow
6:52 PM 1.9 °F -19.8 °F -0.9 °F 88% 30.27 in 2.5 mi NNW 20.7 mph 28.8 mph 0.00 in Snow Light Snow
7:12 PM 1.4 °F -21.4 °F -2.2 °F 85% 30.13 in 1.8 mi NNW 23.0 mph 31.1 mph 0.00 in Snow Light Snow
7:19 PM 1.4 °F -22.3 °F -2.2 °F 85% 30.13 in 1.8 mi NNW 25.3 mph 31.1 mph 0.00 in Snow Light Snow
7:30 PM -0.4 °F -22.3 °F -4.0 °F 85% 30.14 in 1.5 mi NNW 19.6 mph 31.1 mph 0.00 in Snow Light Snow
7:37 PM -0.4 °F -19.9 °F -4.0 °F 85% 30.14 in 2.0 mi NNW 15.0 mph 28.8 mph 0.00 in Snow Light Snow
7:52 PM -0.9 °F -24.1 °F -5.1 °F 83% 30.31 in 2.0 mi North 21.9 mph 26.5 mph 0.00 in Snow Light Snow
7:58 PM -0.4 °F -22.3 °F -5.8 °F 78% 30.16 in 1.8 mi NNW 19.6 mph 26.5 mph 0.00 in Snow Light Snow
8:14 PM -2.2 °F -18.9 °F -7.6 °F 78% 30.17 in 2.5 mi NNW 10.4 mph 19.6 mph 0.00 in Snow Light Snow
8:21 PM -2.2 °F -18.0 °F -7.6 °F 78% 30.18 in 4.0 mi NW 9.2 mph - 0.00 in Snow Light Snow
8:35 PM -4.0 °F -23.7 °F -9.4 °F 78% 30.19 in 4.0 mi NW 13.8 mph - 0.00 in Snow Light Snow
8:52 PM -4.0 °F -23.0 °F -9.0 °F 79% 30.36 in 8.0 mi NW 12.7 mph - 0.00 in   Overcast
9:19 PM -5.8 °F -26.0 °F -11.2 °F 77% 30.20 in 8.0 mi NNW 13.8 mph - 0.00 in   Overcast
9:47 PM -5.8 °F -25.2 °F -11.2 °F 77% 30.19 in 10.0 mi NW 12.7 mph - 0.00 in   Overcast
9:52 PM -6.0 °F -27.7 °F -11.0 °F 79% 30.36 in 10.0 mi NW 16.1 mph - 0.00 in   Overcast
10:00 PM -5.8 °F -26.8 °F -11.2 °F 77% 30.18 in 10.0 mi NW 15.0 mph - N/A   Overcast
10:52 PM -5.1 °F -27.8 °F -9.9 °F 80% 30.33 in 9.0 mi NW 18.4 mph - N/A   Overcast
11:52 PM -6.0 °F -28.4 °F -11.9 °F 75% 30.32 in 9.0 mi WNW 17.3 mph - 0.00 in   Overcast